Location: ???? ?????
(30.0052°N, 31.2891°E)
Time: 21:53:10
(UTC+00:00)

Cosmos 2058 Rocket - Pass Details

Date: 26 May 2022
Orbit: 609 x 639 km, 82.5° (Epoch: 05 July)

Event Time Altitude Azimuth Distance (km) Brightness Sun altitude
Rises 02:09:22 0° 341° (NNW) 2,884 6.7 -9.8°
Reaches altitude 10° 02:11:46 10° 331° (NNW) 1,972 5.7 -9.3°
Maximum altitude 02:15:37 31° 269° (W) 1,068 3.8 -8.6°
Drops below altitude 10° 02:19:27 10° 207° (SSW) 1,954 5.1 -7.9°
Enters shadow 02:21:40 - 197° (SSW) 2,793 6.0 -7.5°
